Погода в Черкасском Поречном

Россия / Курская область     51°18′21″N   35°20′06″E
темп.,
°C
ветер,
м/с
пор.,
м/с
влажн.,
%
обл.,
%
осадки,
мм/ч
давл.,
гПа
погр.,
м
20 января, ср
ср2000:00−19зсз129822 0.0 102120
03:00−19зсз229730 0.0 102220
06:00−19зсз229725 0.0 102220
09:00−19з119612 0.0 102420
12:00−15з22910 0.0 1025173
15:00−14з239230 0.0 1024214
18:00−17юз11940 0.0 102620
21:00−17ю22950 0.0 102620
21 января, чт
чт2100:00−17ю33940 0.0 102746
03:00−17ю36940 0.0 102793
06:00−17ю489428 0.0 1026170
09:00−15ю5109049 0.0 1025246
12:00−11ю71392100 0.0 1024353
15:00−7ююз71494100 0.4 1021496
18:00−5юз61394100 0.4 1020532
21:00−3юз71296100 0.4 1019525
22 января, пт
пт2200:00−2юз61195100 0.0 1019528
03:00−1юз51194100 0.0 1020469
06:00−1юз51095100 0.0 1018406
09:000ююз61096100 0.0 1018510
12:000ююз61096100 0.0 1018522
15:00+1ююз61198100 0.0 1016443
18:00+1ююз61197100 0.0 1016437
21:00+1ююз61198100 0.0 1016426
23 января, сб
сб2300:00+1ююз51197100 0.0 1016418
03:00+1ю51196100 0.0 1016415
06:00+1ююз51198100 0.0 1015429
09:00+2ю51199100 0.0 1015320
12:00+2ююв51199100 0.0 1015307
15:00+2ю51199100 0.0 1014312
18:00+2ю51099100 0.0 1014275
21:00+2ююв51198100 0.0 1014315
24 января, вс
вс2400:00+2ююв61396100 0.0 1014367
03:00+2ююв61297100 0.0 1013308
06:00+2ююв61496100 0.0 1012381
09:00+2ююв61394100 0.0 1013396
12:00+3ююв71690100 0.0 1013485
15:00+3ююв71485100 0.0 1012456
18:00+3ююв71581100 0.0 1011411
21:00+2ююв71578100 0.0 1011534